DW9799 Weather Reports


Display with metric or nautical units.
time (UTC)temp
F
wind
direction
speed
MPH
gust
MPH
rain 1hr
in
rain 24hr
in
rain mn
in
humidity
%
barometer
mb
20180620035811 66 333 0.0 1.0 0.00 0.04 0.04 84 1011.5
20180620034810 66 333 1.0 2.0 0.00 0.04 0.04 84 1011.5
20180620033809 66 333 0.0 1.0 0.00 0.04 0.04 83 1011.5
20180620032808 66 333 1.0 6.0 0.00 0.04 0.04 82 1011.5
20180620031807 67 331 4.0 5.0 0.00 0.04 0.04 82 1011.5
20180620030806 67 175 0.0 0.0 0.00 0.04 0.04 80 1011.5
20180620025805 67 175 1.0 3.0 0.00 0.04 0.04 81 1011.5
20180620024804 67 175 2.0 5.0 0.00 0.04 0.04 79 1011.5
20180620023804 68 91 2.0 3.0 0.00 0.04 0.04 79 1011.2
20180620022803 68 38 0.0 0.0 0.00 0.04 0.04 77 1011.2
20180620021756 68 38 0.0 2.0 0.00 0.04 0.04 76 1011.2
20180620020756 68 38 1.0 2.0 0.00 0.04 0.04 76 1010.8
20180620015755 68 38 1.0 1.0 0.00 0.04 0.04 76 1010.8
20180620014753 69 38 2.0 2.0 0.00 0.04 0.04 77 1011.2
20180620013752 69 38 1.0 2.0 0.00 0.04 0.04 77 1011.2
20180620012752 69 38 0.0 2.0 0.00 0.04 0.04 78 1011.2
20180620011750 69 38 0.0 1.0 0.00 0.04 0.04 78 1011.2
20180620010750 69 38 1.0 2.0 0.00 0.04 0.04 79 1011.5
20180620005749 69 38 1.0 1.0 0.00 0.04 0.04 79 1011.5
20180620004748 69 38 0.0 2.0 0.00 0.04 0.04 79 1011.9
20180620003747 69 38 2.0 3.0 0.00 0.04 0.04 78 1011.9
20180620002747 70 38 2.0 4.0 0.00 0.04 0.04 77 1011.9
20180620001745 70 38 2.0 5.0 0.00 0.04 0.04 76 1011.9
20180620000744 70 40 4.0 5.0 0.00 0.04 0.04 75 1011.9
20180619235743 70 43 3.0 5.0 0.00 0.04 0.04 74 1011.9
20180619234742 71 39 5.0 6.0 0.00 0.04 0.04 73 1011.9
20180619233740 71 53 2.0 6.0 0.00 0.04 0.04 72 1011.9
20180619232739 71 43 3.0 5.0 0.00 0.04 0.04 73 1011.9
20180619231738 71 51 1.0 6.0 0.00 0.04 0.04 74 1011.9
20180619230738 71 41 4.0 8.0 0.00 0.04 0.04 75 1012.2
20180619225737 71 61 1.0 4.0 0.00 0.04 0.04 79 1012.2
20180619224737 70 51 1.0 2.0 0.00 0.04 0.04 79 1012.2
20180619223736 70 51 0.0 3.0 0.00 0.04 0.04 78 1012.2
20180619222735 70 51 2.0 2.0 0.00 0.04 0.04 78 1012.2
20180619221734 70 51 1.0 3.0 0.00 0.04 0.04 78 1012.5
20180619220733 70 44 1.0 2.0 0.00 0.04 0.04 78 1012.2
20180619215732 69 48 2.0 5.0 0.00 0.04 0.04 78 1012.5
20180619214731 69 67 2.0 5.0 0.00 0.04 0.04 79 1012.2
20180619213730 69 48 4.0 7.0 0.00 0.04 0.04 79 1012.2
20180619212730 69 43 3.0 7.0 0.00 0.04 0.04 79 1012.2
20180619211729 69 65 3.0 8.0 0.00 0.04 0.04 80 1012.2
20180619210728 68 48 5.0 9.0 0.00 0.04 0.04 80 1012.5
20180619205727 68 42 5.0 7.0 0.00 0.04 0.04 81 1012.5
20180619204727 68 42 5.0 8.0 0.00 0.04 0.04 82 1012.2
20180619203726 68 49 3.0 9.0 0.00 0.04 0.04 81 1012.5
20180619202725 68 60 4.0 10.0 0.00 0.04 0.04 82 1012.2
20180619201724 68 42 6.0 9.0 0.00 0.04 0.04 82 1012.5
20180619200723 68 62 5.0 9.0 0.00 0.04 0.04 81 1012.5
20180619195722 68 59 5.0 10.0 0.00 0.04 0.04 82 1012.5
20180619194721 68 63 5.0 7.0 0.00 0.04 0.04 81 1012.5
20180619193721 68 104 3.0 13.0 0.00 0.04 0.04 80 1012.5
20180619192720 68 73 5.0 11.0 0.00 0.04 0.04 80 1012.5
20180619191719 68 65 5.0 12.0 0.00 0.04 0.04 81 1012.2
20180619190718 68 71 6.0 10.0 0.00 0.04 0.04 83 1012.2
20180619185717 68 47 6.0 12.0 0.00 0.04 0.04 82 1012.5
20180619184716 68 69 2.0 10.0 0.00 0.04 0.04 81 1012.5
20180619183715 68 127 5.0 9.0 0.00 0.04 0.04 82 1012.9
20180619182715 68 138 3.0 11.0 0.00 0.04 0.04 82 1012.5
20180619181714 67 83 2.0 8.0 0.00 0.04 0.04 83 1012.9
20180619180713 67 75 3.0 10.0 0.00 0.04 0.04 84 1012.9
20180619175712 67 74 4.0 14.0 0.00 0.04 0.04 84 1012.9
20180619174711 67 120 4.0 10.0 0.00 0.04 0.04 84 1013.2
20180619173710 67 90 7.0 13.0 0.00 0.04 0.04 85 1012.9
20180619172710 67 87 4.0 13.0 0.00 0.04 0.04 85 1013.2
20180619171709 66 63 5.0 13.0 0.01 0.04 0.04 87 1013.2
20180619170708 66 50 5.0 10.0 0.02 0.04 0.04 88 1013.2
20180619165708 66 58 3.0 11.0 0.03 0.04 0.04 88 1013.2
20180619164707 65 81 3.0 10.0 0.03 0.04 0.04 88 1013.2
20180619163706 66 60 3.0 8.0 0.03 0.04 0.04 90 1013.2
20180619162705 66 70 6.0 9.0 0.03 0.04 0.04 90 1013.2
20180619161704 65 45 3.0 7.0 0.02 0.03 0.03 90 1013.2
20180619160704 65 47 4.0 8.0 0.02 0.02 0.02 90 1013.2
20180619155703 65 51 3.0 7.0 0.01 0.01 0.01 89 1013.2
20180619154702 65 39 2.0 5.0 0.01 0.01 0.01 89 1013.5
20180619153701 65 79 2.0 6.0 0.01 0.01 0.01 88 1013.5
20180619152700 65 97 2.0 8.0 0.01 0.01 0.01 88 1013.5
20180619151659 65 110 2.0 8.0 0.01 0.01 0.01 87 1013.2
20180619150659 65 95 2.0 9.0 0.00 0.00 0.00 86 1013.2
20180619145658 66 103 4.0 11.0 0.00 0.00 0.00 84 1013.2
20180619144656 66 128 3.0 11.0 0.00 0.00 0.00 83 1013.2
20180619143655 66 99 5.0 8.0 0.00 0.00 0.00 83 1013.2
20180619142654 66 111 5.0 11.0 0.00 0.00 0.00 82 1013.2
20180619141653 66 73 3.0 7.0 0.00 0.00 0.00 82 1013.2
20180619140652 66 73 3.0 9.0 0.00 0.00 0.00 81 1013.2
20180619135651 66 79 5.0 8.0 0.00 0.00 0.00 81 1013.2
20180619134651 66 36 2.0 11.0 0.00 0.00 0.00 80 1012.9
20180619133650 66 98 2.0 7.0 0.00 0.00 0.00 80 1012.9
20180619132649 66 33 2.0 8.0 0.00 0.00 0.00 79 1012.9
20180619131648 66 75 3.0 9.0 0.00 0.00 0.00 78 1013.2
20180619130647 65 82 4.0 10.0 0.00 0.00 0.00 78 1013.2
20180619125647 65 77 2.0 9.0 0.00 0.00 0.00 77 1013.2
20180619124646 65 79 4.0 11.0 0.00 0.00 0.00 77 1013.2
20180619123645 65 48 3.0 9.0 0.00 0.00 0.00 76 1013.2
20180619122644 65 47 2.0 6.0 0.00 0.00 0.00 75 1013.2
20180619121643 65 74 4.0 7.0 0.00 0.00 0.00 74 1013.2
20180619120642 65 64 3.0 8.0 0.00 0.00 0.00 73 1013.2
20180619115641 65 50 3.0 8.0 0.00 0.00 0.00 73 1013.2
20180619114640 65 53 4.0 7.0 0.00 0.00 0.00 73 1013.2
20180619113640 65 71 3.0 8.0 0.00 0.00 0.00 73 1012.9
20180619112639 65 64 3.0 6.0 0.00 0.00 0.00 72 1012.9
20180619111639 65 77 3.0 8.0 0.00 0.00 0.00 71 1012.9
20180619110637 65 58 4.0 8.0 0.00 0.00 0.00 70 1012.9
20180619105637 65 57 2.0 7.0 0.00 0.00 0.00 70 1012.9
20180619104636 65 47 4.0 7.0 0.00 0.00 0.00 69 1012.9
20180619103635 65 40 5.0 8.0 0.00 0.00 0.00 69 1012.5
20180619102634 65 38 3.0 8.0 0.00 0.00 0.00 69 1012.5
20180619101634 66 39 6.0 9.0 0.00 0.00 0.00 68 1012.2
20180619100633 66 40 6.0 10.0 0.00 0.00 0.00 68 1012.2
20180619095631 66 44 6.0 10.0 0.00 0.00 0.00 67 1012.5
20180619094635 66 38 5.0 7.0 0.00 0.00 0.00 67 1012.5
20180619093635 66 48 2.0 7.0 0.00 0.00 0.00 67 1012.5
20180619092628 66 44 4.0 8.0 0.00 0.00 0.00 67 1012.5
20180619091629 66 42 5.0 7.0 0.00 0.00 0.00 67 1012.2
20180619090627 67 41 4.0 6.0 0.00 0.00 0.00 66 1012.5
20180619085626 67 38 3.0 8.0 0.00 0.00 0.00 66 1012.5
20180619084625 67 87 3.0 8.0 0.00 0.00 0.00 65 1012.5
20180619083624 67 48 2.0 8.0 0.00 0.00 0.00 65 1012.5
20180619082624 67 43 6.0 8.0 0.00 0.00 0.00 65 1012.2
20180619081623 67 46 5.0 9.0 0.00 0.00 0.00 64 1012.5
20180619080622 67 57 4.0 10.0 0.00 0.00 0.00 63 1012.5
20180619075621 68 75 2.0 5.0 0.00 0.00 0.00 63 1012.5
20180619074621 68 78 3.0 6.0 0.00 0.01 0.00 62 1012.5
20180619073620 68 59 1.0 5.0 0.00 0.01 0.00 61 1012.9
20180619072619 68 87 2.0 6.0 0.00 0.01 0.00 60 1012.9
20180619071618 68 39 4.0 6.0 0.00 0.01 0.00 61 1012.9
20180619070617 68 50 3.0 6.0 0.00 0.01 0.00 61 1012.9
20180619065617 68 58 2.0 5.0 0.00 0.01 0.00 61 1012.9
20180619064616 68 72 2.0 5.0 0.00 0.01 0.00 62 1012.5
20180619063615 69 47 2.0 8.0 0.00 0.01 0.00 61 1012.9
20180619062614 69 64 1.0 5.0 0.00 0.01 0.00 60 1012.9
20180619061613 69 80 3.0 6.0 0.00 0.01 0.00 61 1012.9
20180619060612 69 78 3.0 7.0 0.00 0.03 0.00 61 1012.9
20180619055612 69 59 2.0 9.0 0.00 0.03 0.00 63 1012.9
20180619054611 69 60 3.0 7.0 0.00 0.03 0.00 64 1012.9
20180619053610 69 63 3.0 6.0 0.00 0.03 0.00 66 1012.9
20180619052609 69 47 3.0 7.0 0.00 0.03 0.00 67 1013.2
20180619051608 69 50 4.0 8.0 0.00 0.03 0.00 67 1013.2
20180619050608 69 39 5.0 7.0 0.00 0.04 0.00 69 1013.5
20180619045607 70 34 5.0 7.0 0.00 0.04 0.04 70 1013.5
20180619044605 70 33 5.0 7.0 0.00 0.05 0.04 69 1013.2
20180619043604 69 54 2.0 7.0 0.00 0.06 0.04 68 1013.2
20180619042604 69 88 2.0 7.0 0.00 0.06 0.04 69 1013.2
20180619041603 70 46 2.0 5.0 0.00 0.06 0.04 70 1013.2
20180619040602 70 42 2.0 5.0 0.00 0.07 0.04 70 1013.2